Date String (YYYY-MM-DD hh:mm:ss) UTC,Instrument flags,Ambient pressure (hPa),Sample flow (lpm),Bypass flow (lpm),Sample temperature (°C),Ambient temperature (°C),ASC tube jacket temperature (°C),LED temperature (°C),Box temperature (°C),Sample RH (%),Span deviation,Mass concentration (μg/m³),Mass concentration (μg/m³),Mass concentration (μg/m³)
DateTimeUTC,F1_M11,P_M11,Q1_M11,Q2_M11,T1_M11,T2_M11,T3_M11,T4_M11,T5_M11,U1_M11,ZSPAN_M11,X0_M11,X2_M11,X1_M11
2022-08-10 20:00:00,,0833.4,5.00,0.00,29.1,27.6,00.0,37.9,31.0,19.7,0000.0,0011.93,0004.61,0003.76
2022-08-10 20:01:00,,0833.4,5.00,0.00,29.2,27.8,00.0,37.9,31.1,19.5,0000.0,0012.17,0004.59,0003.76
2022-08-10 20:02:00,,0833.5,5.01,0.00,29.2,28.0,00.0,37.9,31.2,19.5,0000.0,0011.20,0004.56,0003.74
2022-08-10 20:03:00,,0833.4,5.00,0.00,29.3,28.0,00.0,37.9,31.2,19.9,0000.0,0011.41,0004.56,0003.73
2022-08-10 20:04:00,,0833.4,4.99,0.00,29.2,27.3,00.0,37.9,31.1,20.1,0000.0,0011.24,0004.54,0003.71
2022-08-10 20:05:00,,0833.4,5.00,0.00,29.2,27.0,00.0,37.9,31.0,20.2,0000.0,0011.15,0004.55,0003.72
2022-08-10 20:06:00,,0833.4,5.00,0.00,29.2,27.0,00.0,37.9,31.0,19.6,0000.0,0011.07,0004.55,0003.73
2022-08-10 20:07:00,,0833.4,4.99,0.00,29.1,27.2,00.0,37.9,30.9,21.2,0000.0,0010.87,0004.57,0003.73
2022-08-10 20:08:00,,0833.4,5.00,0.00,29.1,27.4,00.0,37.9,30.9,20.6,0000.0,0010.10,0004.58,0003.74
2022-08-10 20:09:00,,0833.3,5.00,0.00,29.1,27.6,00.0,37.9,31.1,19.3,0000.0,0010.00,0004.62,0003.76
2022-08-10 20:10:00,,0833.3,5.00,0.00,29.2,27.8,00.0,37.9,31.1,19.5,0000.0,0009.79,0004.64,0003.80
2022-08-10 20:11:00,,0833.3,5.01,0.00,29.2,28.0,00.0,37.9,31.2,20.0,0000.0,0010.69,0004.71,0003.83
2022-08-10 20:12:00,,0833.2,4.99,0.00,29.3,28.2,00.0,37.9,31.3,20.0,0000.0,0010.75,0004.75,0003.86
2022-08-10 20:13:00,,0833.2,5.00,0.00,29.3,27.8,00.0,37.9,31.2,19.5,0000.0,0010.88,0004.83,0003.90
2022-08-10 20:14:00,,0833.2,5.00,0.00,29.2,27.2,00.0,37.9,31.0,19.7,0000.0,0010.71,0004.89,0003.94
2022-08-10 20:15:00,,0833.2,4.99,0.00,29.2,27.1,00.0,37.9,31.0,19.7,0000.0,0011.13,0004.90,0003.97
2022-08-10 20:16:00,,0833.1,5.01,0.00,29.2,27.2,00.0,37.9,30.9,19.1,0000.0,0011.11,0004.91,0003.99
2022-08-10 20:17:00,,0833.1,4.99,0.00,29.1,27.3,00.0,37.9,30.9,19.7,0000.0,0011.31,0004.98,0004.02
2022-08-10 20:18:00,,0833.1,5.00,0.00,29.1,27.5,00.0,37.9,31.0,20.5,0000.0,0012.19,0005.06,0004.05
2022-08-10 20:19:00,,0833.1,5.00,0.00,29.2,27.7,00.0,37.9,31.1,20.3,0000.0,0012.27,0005.08,0004.07
2022-08-10 20:20:00,,0833.2,5.00,0.00,29.2,27.9,00.0,37.9,31.2,20.6,0000.0,0012.18,0005.06,0004.07
2022-08-10 20:21:00,,0833.2,4.99,0.00,29.3,28.1,00.0,37.9,31.3,18.9,0000.0,0012.75,0005.06,0004.06
2022-08-10 20:22:00,,0833.2,5.01,0.00,29.3,27.9,00.0,37.9,31.2,18.0,0000.0,0011.83,0005.02,0004.03
2022-08-10 20:23:00,,0833.2,4.99,0.00,29.2,27.2,00.0,37.9,31.0,17.8,0000.0,0011.47,0004.97,0004.00
2022-08-10 20:24:00,,0833.2,5.00,0.00,29.2,27.1,00.0,37.9,31.0,18.1,0000.0,0011.59,0004.88,0003.96
2022-08-10 20:25:00,,0833.2,4.99,0.00,29.2,27.2,00.0,37.9,31.0,18.0,0000.0,0011.38,0004.79,0003.91
2022-08-10 20:26:00,,0833.2,5.00,0.00,29.1,27.3,00.0,37.9,30.9,17.9,0000.0,0010.72,0004.77,0003.88
2022-08-10 20:27:00,,0833.2,5.00,0.00,29.1,26.9,00.0,37.9,28.6,17.7,0000.0,0010.79,0004.80,0003.86
2022-08-10 20:28:00,,0833.1,5.00,0.00,29.2,27.7,00.0,37.9,31.1,18.1,0000.0,0010.42,0004.75,0003.85
2022-08-10 20:29:00,,0833.1,5.00,0.00,29.2,27.9,00.0,37.9,31.2,17.7,0000.0,0009.57,0004.66,0003.82
2022-08-10 20:30:00,,0833.1,5.01,0.00,29.3,28.1,00.0,37.9,31.3,17.8,0000.0,0010.30,0004.65,0003.80
2022-08-10 20:31:00,,0833.1,5.00,0.00,29.3,27.9,00.0,37.9,31.2,17.7,0000.0,0010.46,0004.67,0003.78
2022-08-10 20:32:00,,0833.2,5.00,0.00,29.2,27.2,00.0,37.9,31.0,18.3,0000.0,0009.94,0004.64,0003.76
2022-08-10 20:33:00,,0833.1,5.01,0.00,29.2,27.0,00.0,37.9,31.0,18.9,0000.0,0010.39,0004.63,0003.75
2022-08-10 20:34:00,,0833.1,5.00,0.00,29.2,27.1,00.0,37.9,31.0,19.1,0000.0,0010.97,0004.68,0003.77
2022-08-10 20:35:00,,0833.1,5.00,0.00,29.1,27.3,00.0,37.9,30.9,19.2,0000.0,0010.92,0004.70,0003.80
2022-08-10 20:36:00,,0833.1,5.00,0.00,29.1,27.5,00.0,37.9,31.0,18.0,0000.0,0010.98,0004.70,0003.81
2022-08-10 20:37:00,,0833.1,5.00,0.00,29.2,27.7,00.0,37.9,31.1,18.5,0000.0,0011.36,0004.74,0003.82
2022-08-10 20:38:00,,0833.1,5.00,0.00,29.2,27.9,00.0,37.9,31.2,18.7,0000.0,0012.00,0004.71,0003.84
2022-08-10 20:39:00,,0833.1,5.01,0.00,29.3,28.1,00.0,37.9,31.3,19.1,0000.0,0013.60,0004.69,0003.85
2022-08-10 20:40:00,,0833.1,4.99,0.00,29.3,28.2,00.0,37.9,31.3,18.7,0000.0,0014.31,0004.72,0003.85
2022-08-10 20:41:00,,0833.1,5.00,0.00,29.3,27.7,00.0,37.9,31.1,19.2,0000.0,0014.33,0004.75,0003.84
2022-08-10 20:42:00,,0833.0,5.01,0.00,29.3,27.1,00.0,37.9,31.0,19.5,0000.0,0014.09,0004.76,0003.84
2022-08-10 20:43:00,,0833.0,4.99,0.00,29.2,27.1,00.0,37.9,31.0,20.2,0000.0,0014.61,0004.77,0003.84
2022-08-10 20:44:00,,0833.0,5.01,0.00,29.2,27.2,00.0,37.9,31.0,19.3,0000.0,0014.50,0004.75,0003.84
2022-08-10 20:45:00,,0833.0,5.00,0.00,29.2,27.4,00.0,37.9,31.0,18.4,0000.0,0014.46,0004.69,0003.81
2022-08-10 20:46:00,,0833.0,5.00,0.00,29.2,27.6,00.0,37.9,31.1,18.6,0000.0,0014.91,0004.70,0003.78
2022-08-10 20:47:00,,0833.0,5.01,0.00,29.2,27.9,00.0,37.9,31.1,19.1,0000.0,0014.79,0004.71,0003.76
2022-08-10 20:48:00,,0833.0,5.00,0.00,29.3,28.1,00.0,38.0,31.2,18.9,0000.0,0014.56,0004.67,0003.74
2022-08-10 20:49:00,,0833.1,4.99,0.00,29.3,28.3,00.0,38.0,31.3,18.4,0000.0,0014.14,0004.62,0003.70
2022-08-10 20:50:00,,0833.1,5.00,0.00,29.4,28.1,00.0,38.0,31.3,18.3,0000.0,0012.98,0004.65,0003.68
2022-08-10 20:51:00,,0833.0,5.01,0.00,29.3,27.5,00.0,38.0,31.1,18.3,0000.0,0012.34,0004.62,0003.68
2022-08-10 20:52:00,,0833.0,5.00,0.00,29.3,27.2,00.0,38.0,31.1,18.0,0000.0,0012.16,0004.58,0003.68
2022-08-10 20:53:00,,0832.9,4.99,0.00,29.3,27.2,00.0,37.9,31.0,18.6,0000.0,0012.33,0004.52,0003.67
2022-08-10 20:54:00,,0832.8,5.01,0.00,29.2,27.4,00.0,37.9,31.0,19.2,0000.0,0012.72,0004.55,0003.66
2022-08-10 20:55:00,,0832.9,5.00,0.00,29.2,27.6,00.0,37.9,31.0,19.4,0000.0,0012.31,0004.58,0003.66
2022-08-10 20:56:00,,0832.8,5.00,0.00,29.3,27.8,00.0,38.0,31.1,18.4,0000.0,0012.48,0004.62,0003.66
2022-08-10 20:57:00,,0832.8,4.99,0.00,29.3,28.0,00.0,38.0,31.2,19.2,0000.0,0011.73,0004.56,0003.66
2022-08-10 20:58:00,,0832.9,4.99,0.00,29.3,28.2,00.0,38.0,31.3,19.3,0000.0,0011.68,0004.54,0003.66
2022-08-10 20:59:00,,0832.9,4.99,0.00,29.4,28.2,00.0,38.0,31.3,19.3,0000.0,0011.73,0004.57,0003.66
